• In Italy
  • List of Countries
  • For 7 days
  • Water Temperature
  • Satellite Maps
  • Weather Map
  • Weather Widgets
  • user-avatar
    Login

    Hourly Weather Sevan

    Today, 20 September, Thursday

    Time Temperature Precipitation Wind Pressure Humidity
    00:00 +13°C° 0 mm 2 mps 644 mmHg 82%
    01:00 +13°C° 0 mm 2 mps 644 mmHg 83%
    02:00 +12°C° 0 mm 2 mps 644 mmHg 83%
    03:00 +12°C° 0 mm 2 mps 644 mmHg 84%
    04:00 +12°C° 0 mm 2 mps 644 mmHg 84%
    05:00 +10°C° 0 mm 2 mps 644 mmHg 85%
    06:00 +10°C° 0 mm 2 mps 644 mmHg 86%
    07:00 +13°C° 0 mm 2 mps 644 mmHg 76%
    08:00 +15°C° 0 mm 1 mps 645 mmHg 65%
    09:00 +18°C° 0 mm 1 mps 646 mmHg 55%
    10:00 +20°C° 0 mm 1 mps 646 mmHg 51%
    11:00 +20°C° 0 mm 2 mps 646 mmHg 47%
    12:00 +21°C° 0 mm 2 mps 646 mmHg 42%
    13:00 +23°C° 0 mm 2 mps 646 mmHg 42%
    14:00 +23°C° 0 mm 2 mps 646 mmHg 41%
    15:00 +23°C° 0 mm 2 mps 645 mmHg 41%
    16:00 +21°C° 0 mm 2 mps 645 mmHg 48%
    17:00 +19°C° 0 mm 2 mps 645 mmHg 55%
    18:00 +17°C° 0 mm 2 mps 644 mmHg 62%
    19:00 +17°C° 0 mm 2 mps 644 mmHg 67%
    20:00 +16°C° 0 mm 2 mps 644 mmHg 72%
    21:00 +15°C° 0 mm 2 mps 645 mmHg 77%
    22:00 +15°C° 0 mm 2 mps 644 mmHg 79%
    23:00 +14°C° 0 mm 2 mps 644 mmHg 80%

    Tomorrow, 21 September, Friday

    Time Temperature Precipitation Wind Pressure Humidity
    00:00 +14°C° 0 mm 2 mps 644 mmHg 82%
    01:00 +14°C° 0 mm 2 mps 644 mmHg 82%
    02:00 +13°C° 0 mm 2 mps 644 mmHg 83%
    03:00 +13°C° 0 mm 2 mps 644 mmHg 84%
    04:00 +13°C° 0 mm 1 mps 644 mmHg 85%
    05:00 +13°C° 0 mm 1 mps 644 mmHg 85%
    06:00 +13°C° 0 mm 1 mps 644 mmHg 86%
    07:00 +15°C° 0 mm 1 mps 644 mmHg 77%
    08:00 +16°C° 0 mm 1 mps 645 mmHg 68%
    09:00 +19°C° 0 mm 1 mps 645 mmHg 60%
    10:00 +21°C° 0 mm 1 mps 645 mmHg 55%
    11:00 +21°C° 0 mm 2 mps 645 mmHg 50%
    12:00 +23°C° 0 mm 2 mps 645 mmHg 45%
    13:00 +23°C° 0.3 mm 2 mps 645 mmHg 44%
    14:00 +24°C° 0.3 mm 2 mps 645 mmHg 43%
    15:00 +24°C° 0.3 mm 2 mps 644 mmHg 41%
    16:00 +22°C° 0.5 mm 1 mps 644 mmHg 48%
    17:00 +21°C° 0.5 mm 1 mps 643 mmHg 54%
    18:00 +19°C° 0.5 mm 1 mps 643 mmHg 60%
    19:00 +18°C° 0.3 mm 1 mps 643 mmHg 64%
    20:00 +16°C° 0.3 mm 1 mps 644 mmHg 67%
    21:00 +16°C° 0.3 mm 2 mps 644 mmHg 70%
    22:00 +15°C° 0.2 mm 2 mps 644 mmHg 72%
    23:00 +15°C° 0.2 mm 2 mps 644 mmHg 74%

    Day after tomorrow, 22 September, Saturday

    Time Temperature Precipitation Wind Pressure Humidity
    00:00 +14°C° 0.2 mm 2 mps 644 mmHg 76%
    01:00 +14°C° 0.2 mm 2 mps 644 mmHg 77%
    02:00 +14°C° 0.2 mm 2 mps 644 mmHg 78%
    03:00 +13°C° 0.2 mm 2 mps 643 mmHg 79%
    04:00 +13°C° 0.1 mm 2 mps 643 mmHg 80%
    05:00 +13°C° 0.1 mm 2 mps 643 mmHg 81%
    06:00 +13°C° 0.1 mm 2 mps 643 mmHg 82%
    07:00 +15°C° 0.1 mm 1 mps 644 mmHg 73%
    08:00 +18°C° 0.1 mm 1 mps 645 mmHg 64%
    09:00 +20°C° 0.1 mm 1 mps 645 mmHg 54%
    10:00 +20°C° 0.7 mm 2 mps 645 mmHg 50%
    11:00 +21°C° 0.7 mm 2 mps 645 mmHg 46%
    12:00 +23°C° 0.7 mm 2 mps 645 mmHg 42%
    13:00 +23°C° 0.6 mm 2 mps 645 mmHg 42%
    14:00 +23°C° 0.6 mm 2 mps 645 mmHg 41%
    15:00 +23°C° 0.6 mm 1 mps 644 mmHg 41%
    16:00 +22°C° 0.5 mm 1 mps 644 mmHg 47%
    17:00 +20°C° 0.5 mm 1 mps 644 mmHg 53%
    18:00 +18°C° 0.5 mm 1 mps 643 mmHg 60%
    19:00 +18°C° 0.2 mm 1 mps 644 mmHg 64%
    20:00 +16°C° 0.2 mm 1 mps 644 mmHg 68%
    21:00 +15°C° 0.2 mm 1 mps 644 mmHg 72%
    22:00 +15°C° 0.1 mm 2 mps 644 mmHg 74%
    23:00 +14°C° 0.1 mm 2 mps 644 mmHg 76%

    23 September, Sunday

    Time Temperature Precipitation Wind Pressure Humidity
    00:00 +14°C° 0.1 mm 2 mps 644 mmHg 78%
    01:00 +14°C° 0 mm 2 mps 644 mmHg 79%
    02:00 +14°C° 0 mm 2 mps 644 mmHg 80%
    03:00 +13°C° 0 mm 2 mps 643 mmHg 80%
    04:00 +13°C° 0 mm 2 mps 643 mmHg 81%
    05:00 +13°C° 0 mm 2 mps 643 mmHg 82%
    06:00 +13°C° 0 mm 2 mps 643 mmHg 83%
    07:00 +15°C° 0 mm 1 mps 644 mmHg 74%
    08:00 +18°C° 0 mm 1 mps 644 mmHg 64%
    09:00 +20°C° 0 mm 1 mps 645 mmHg 55%
    10:00 +21°C° 0 mm 1 mps 645 mmHg 50%
    11:00 +22°C° 0 mm 1 mps 645 mmHg 45%
    12:00 +23°C° 0 mm 2 mps 645 mmHg 40%
    13:00 +24°C° 0.2 mm 2 mps 645 mmHg 39%
    14:00 +24°C° 0.2 mm 2 mps 644 mmHg 38%
    15:00 +24°C° 0.2 mm 2 mps 644 mmHg 37%
    16:00 +22°C° 0.4 mm 1 mps 643 mmHg 43%
    17:00 +20°C° 0.4 mm 1 mps 643 mmHg 50%
    18:00 +18°C° 0.4 mm 1 mps 642 mmHg 56%
    19:00 +18°C° 0.4 mm 1 mps 643 mmHg 60%
    20:00 +16°C° 0.4 mm 2 mps 643 mmHg 65%
    21:00 +16°C° 0.4 mm 2 mps 643 mmHg 69%
    22:00 +15°C° 0.1 mm 2 mps 643 mmHg 70%
    23:00 +15°C° 0.1 mm 2 mps 643 mmHg 71%

    24 September, Monday

    Time Temperature Precipitation Wind Pressure Humidity
    00:00 +15°C° 0.1 mm 2 mps 643 mmHg 72%
    01:00 +14°C° 0.2 mm 1 mps 643 mmHg 74%
    02:00 +14°C° 0.2 mm 1 mps 643 mmHg 76%
    03:00 +14°C° 0.2 mm 1 mps 643 mmHg 77%
    04:00 +13°C° 0.1 mm 1 mps 643 mmHg 80%
    05:00 +13°C° 0.1 mm 1 mps 643 mmHg 82%
    06:00 +12°C° 0.1 mm 2 mps 643 mmHg 84%
    07:00 +15°C° 0 mm 1 mps 643 mmHg 74%
    08:00 +18°C° 0 mm 1 mps 644 mmHg 64%
    09:00 +20°C° 0 mm 1 mps 645 mmHg 55%
    10:00 +21°C° 0 mm 1 mps 645 mmHg 50%
    11:00 +22°C° 0 mm 1 mps 645 mmHg 45%
    12:00 +23°C° 0 mm 2 mps 645 mmHg 40%
    13:00 +24°C° 0 mm 2 mps 644 mmHg 39%
    14:00 +24°C° 0 mm 2 mps 644 mmHg 38%
    15:00 +24°C° 0 mm 2 mps 644 mmHg 37%
    16:00 +22°C° 0 mm 1 mps 643 mmHg 42%
    17:00 +20°C° 0 mm 1 mps 643 mmHg 48%
    18:00 +18°C° 0 mm 1 mps 643 mmHg 54%
    19:00 +18°C° 0 mm 1 mps 643 mmHg 58%
    20:00 +16°C° 0 mm 1 mps 643 mmHg 62%
    21:00 +16°C° 0 mm 2 mps 643 mmHg 66%
    22:00 +15°C° 0 mm 1 mps 643 mmHg 68%
    23:00 +15°C° 0 mm 1 mps 643 mmHg 70%

    25 September, Tuesday

    Time Temperature Precipitation Wind Pressure Humidity
    00:00 +15°C° 0 mm 1 mps 643 mmHg 72%
    01:00 +14°C° 0 mm 1 mps 643 mmHg 72%
    02:00 +14°C° 0 mm 1 mps 642 mmHg 72%
    03:00 +13°C° 0 mm 1 mps 642 mmHg 72%
    04:00 +13°C° 0 mm 1 mps 642 mmHg 71%
    05:00 +13°C° 0 mm 1 mps 642 mmHg 70%
    06:00 +13°C° 0 mm 1 mps 642 mmHg 69%
    07:00 +15°C° 0 mm 1 mps 642 mmHg 59%
    08:00 +19°C° 0 mm 1 mps 643 mmHg 48%
    09:00 +20°C° 0 mm 2 mps 644 mmHg 38%
    10:00 +23°C° 0 mm 2 mps 644 mmHg 35%
    11:00 +24°C° 0 mm 2 mps 644 mmHg 32%
    12:00 +25°C° 0 mm 2 mps 644 mmHg 28%
    13:00 +26°C° 0 mm 2 mps 643 mmHg 28%
    14:00 +26°C° 0 mm 2 mps 643 mmHg 27%
    15:00 +26°C° 0 mm 2 mps 643 mmHg 26%
    16:00 +24°C° 0 mm 2 mps 642 mmHg 30%
    17:00 +22°C° 0 mm 1 mps 641 mmHg 35%
    18:00 +20°C° 0 mm 1 mps 641 mmHg 39%
    19:00 +20°C° 0 mm 1 mps 641 mmHg 41%
    20:00 +19°C° 0 mm 1 mps 641 mmHg 42%
    21:00 +18°C° 0 mm 1 mps 641 mmHg 44%
    22:00 +18°C° 0 mm 1 mps 641 mmHg 44%
    23:00 +18°C° 0 mm 1 mps 641 mmHg 45%
    Show more